Regional Weather Roundup
Issued by NWS

Home | Current Version | Previous Version | Graphics & Text | Print | Product List | Glossary On
Versions: 1 2 3 4 5 6 7 8 9 10 11 12 13 14 15 16 17 18 19 20 21 22 23 24 25 26 27 28 29 30 31 32 33 34 35 36 37 38 39 40 41 42 43 44 45 46 47 48 49 50
991
ASUS43 KFSD 301502
RWRSD

WEATHER ROUNDUP FOR SOUTH DAKOTA
NATIONAL WEATHER SERVICE SIOUX FALLS SD
1000 AM CDT FRI SEP 30 2016

NOTE: "FAIR" INDICATES FEW OR NO CLOUDS BELOW 12,000 FEET WITH NO
SIGNIFICANT WEATHER AND/OR OBSTRUCTIONS TO VISIBILITY.


SDZ001>005-009-010-012>017-301600-
NORTHWEST AND NORTH CENTRAL SOUTH DAKOTA

CITY           SKY/WX    TMP DP  RH WIND       PRES   REMARKS
BUFFALO          N/A     59  44  57 SE9       30.01R
FAITH            N/A     56  43  61 SE23      30.09S
MOBRIDGE       MOSUNNY   62  47  57 S20       30.14F
$$

SDZ012>016-024>037-041>051-057-063-072>074-301600-
SOUTHWEST AND SOUTH CENTRAL SOUTH DAKOTA

CITY           SKY/WX    TMP DP  RH WIND       PRES   REMARKS
RAPID CTY ARPT PTSUNNY   57  44  62 S12       30.08F
PIERRE         MOSUNNY   58  46  64 SE17      30.18F
CUSTER         CLOUDY    62  44  51 W6        30.19S
ELLSWORTH AFB  PTSUNNY   59  45  59 S18       30.07R
PHILIP         PTSUNNY   61  46  57 S15G26    30.12F
PINE RIDGE     CLOUDY    55  43  63 S18G25    30.15S
WINNER         FAIR      61  47  59 S17G23    30.23F
$$

SDZ004>011-016>023-039-040-301600-
NORTHEAST SOUTH DAKOTA

CITY           SKY/WX    TMP DP  RH WIND       PRES   REMARKS
ABERDEEN       MOSUNNY   59  48  67 S15       30.29F
WATERTOWN      CLOUDY    59  50  72 S10       30.33S
SISSETON         N/A     48  48 100 S7        30.34S
$$

SDZ017-020-022-023-036>040-048>070-301600-
SOUTHEAST SOUTH DAKOTA

CITY           SKY/WX    TMP DP  RH WIND       PRES   REMARKS
SIOUX FALLS    MOSUNNY   58  51  78 E5        30.33F
HURON          MOSUNNY   56  47  71 S13       30.30S
MITCHELL       SUNNY     56  48  74 S12       30.32R
YANKTON        SUNNY     52  48  87 E6        30.31S
$$

ABBREVIATIONS USED IN REMARKS
   TC - TEMPERATURE IN CELSIUS
  WCI - WIND CHILL INDEX
   HX - HEAT INDEX
  VSB - VISIBILITY





USA.gov is the U.S. government's official web portal to all federal, state and local government web resources and services.